Location: ??
(35.5052°N, 139.7262°E)
Time: 01:43:07
(UTC+00:00)

Envisat - Pass Details

Date: 04 October 2021
Orbit: 764 x 766 km, 98.2° (Epoch: 17 October)

Event Time Altitude Azimuth Distance (km) Brightness Sun altitude
Rises 20:05:52 0° 7° (N) 3,235 6.3 -7.5°
Reaches altitude 10° 20:08:12 10° 4° (N) 2,305 5.5 -7.1°
Maximum altitude 20:13:11 59° 286° (WNW) 881 3.1 -6.1°
Drops below altitude 10° 20:18:08 10° 208° (SSW) 2,291 5.2 -5.1°
Sets 20:20:28 0° 204° (SSW) 3,214 6.0 -4.6°
